Douglas Lake Weather Center

Moon Phase Calendar



Douglas Lake Water Level
Online Cameras

 


      

Current Conditions in Dandridge
4/17/2024 8:15:45 AM

64°F
Feels Like 64
Clouds
Humidity
74%
Pressure
30"
Wind
3.8 mph (S)
Dew Point
56°F
UV Index
0/10 (Low)
Visibility
6 mi

Hourly Forecast

Date & Time Wed, Apr 17
8:00 AM
Wed, Apr 17
9:00 AM
Wed, Apr 17
10:00 AM
Wed, Apr 17
11:00 AM
Wed, Apr 17
12:00 PM
Wed, Apr 17
1:00 PM
Wed, Apr 17
2:00 PM
Wed, Apr 17
3:00 PM
Wed, Apr 17
4:00 PM
Wed, Apr 17
5:00 PM
Wed, Apr 17
6:00 PM
Wed, Apr 17
7:00 PM
Wed, Apr 17
8:00 PM
Wed, Apr 17
9:00 PM
Wed, Apr 17
10:00 PM
Wed, Apr 17
11:00 PM
Thu, Apr 18
12:00 AM
Thu, Apr 18
1:00 AM
Thu, Apr 18
2:00 AM
Thu, Apr 18
3:00 AM
Thu, Apr 18
4:00 AM
Thu, Apr 18
5:00 AM
Thu, Apr 18
6:00 AM
Thu, Apr 18
7:00 AM
Thu, Apr 18
8:00 AM
Thu, Apr 18
9:00 AM
Thu, Apr 18
10:00 AM
Thu, Apr 18
11:00 AM
Thu, Apr 18
12:00 PM
Thu, Apr 18
1:00 PM
Thu, Apr 18
2:00 PM
Thu, Apr 18
3:00 PM
Thu, Apr 18
4:00 PM
Thu, Apr 18
5:00 PM
Thu, Apr 18
6:00 PM
Thu, Apr 18
7:00 PM
Thu, Apr 18
8:00 PM
Thu, Apr 18
9:00 PM
Thu, Apr 18
10:00 PM
Thu, Apr 18
11:00 PM
Fri, Apr 19
12:00 AM
Fri, Apr 19
1:00 AM
Fri, Apr 19
2:00 AM
Fri, Apr 19
3:00 AM
Fri, Apr 19
4:00 AM
Fri, Apr 19
5:00 AM
Fri, Apr 19
6:00 AM
Fri, Apr 19
7:00 AM
Condition
Clouds

Clouds

Clouds

Clouds

Clouds

Clouds

Clouds

Rain

Clouds

Clouds

Clouds

Clouds

Clouds

Clouds

Clouds

Clouds

Clouds

Clouds

Clouds

Clear

Clear

Clear

Clear

Clear

Clear

Clouds

Clouds

Clouds

Clouds

Clouds

Clouds

Clear

Clear

Clear

Clear

Clear

Clear

Clouds

Clouds

Clouds

Clouds

Clouds

Clouds

Clouds

Clouds

Clouds

Rain

Clouds
Temperature 64°F65°F65°F68°F72°F72°F75°F60°F63°F63°F65°F65°F63°F63°F60°F60°F59°F58°F57°F56°F56°F56°F56°F55°F58°F62°F66°F70°F73°F75°F77°F78°F78°F78°F76°F73°F67°F64°F63°F62°F62°F63°F62°F62°F62°F61°F60°F61°F
Feels Like 64°F64°F65°F68°F72°F72°F74°F60°F63°F63°F65°F65°F63°F63°F59°F60°F58°F57°F56°F56°F55°F56°F55°F55°F58°F62°F66°F70°F73°F75°F77°F78°F78°F78°F76°F73°F67°F64°F62°F62°F62°F62°F62°F62°F61°F61°F60°F61°F
Cloudiness 100%100%100%100%100%100%100%100%100%100%100%100%100%100%100%100%100%100%100%5%4%3%3%2%2%16%30%37%34%28%23%0%0%1%1%1%1%100%90%93%95%96%97%100%100%100%100%100%
Visibility 6 mi6 mi6 mi6 mi6 mi6 mi6 mi6 mi6 mi6 mi6 mi6 mi6 mi6 mi6 mi6 mi6 mi6 mi6 mi6 mi6 mi6 mi6 mi6 mi6 mi6 mi6 mi6 mi6 mi6 mi6 mi6 mi6 mi6 mi6 mi6 mi6 mi6 mi6 mi6 mi6 mi6 mi6 mi6 mi6 mi6 mi6 mi6 mi
Precipitation 0%0%0%0%0%0%0%100%80%80%80%80%80%0%0%0%0%0%0%0%0%0%0%0%0%0%0%0%0%0%0%0%0%0%0%0%0%0%0%0%0%0%0%0%1%0%21%6%
Humidity 74%73%73%66%59%60%48%88%85%86%81%82%83%82%87%84%85%88%90%92%94%95%96%97%94%87%79%72%64%57%51%48%47%49%56%69%80%81%84%84%82%79%79%80%80%84%90%92%
Dew Point 56°F56°F56°F57°F57°F57°F54°F56°F58°F58°F59°F59°F58°F57°F55°F55°F54°F53°F53°F53°F54°F54°F54°F54°F56°F58°F59°F60°F59°F58°F58°F57°F56°F57°F59°F62°F60°F58°F57°F57°F56°F56°F55°F55°F55°F56°F57°F58°F
Pressure 30"30"30.03"30.03"30.03"30.03"30"30.06"30.03"30"30.03"30.03"30.03"30.06"30.09"30.09"30.09"30.09"30.09"30.06"30.09"30.09"30.09"30.09"30.12"30.12"30.12"30.12"30.09"30.09"30.06"30.03"30"30"30"30"30"30"30"29.97"29.97"29.97"30"29.97"29.97"29.97"30"30"
Wind Speed 3.8 mph0.9 mph1.5 mph4.6 mph4.7 mph6 mph9.2 mph11.5 mph6.2 mph4.5 mph4.4 mph3.8 mph3 mph4.3 mph3.6 mph4.9 mph3.8 mph3.4 mph4 mph2.6 mph3.8 mph3.9 mph3.8 mph3.7 mph2.6 mph4.4 mph4.9 mph5 mph4.8 mph4.7 mph4.2 mph4.2 mph4.6 mph5.6 mph6 mph5.9 mph5.6 mph4 mph2.9 mph3.2 mph2.8 mph3 mph4.2 mph1.3 mph2.8 mph2.6 mph4.3 mph7 mph
Wind
Direction
176°
S
258°
WSW
230°
SW
275°
W
247°
WSW
272°
W
251°
WSW
218°
SW
265°
W
227°
SW
232°
SW
247°
WSW
249°
WSW
213°
SSW
236°
SW
192°
SSW
223°
SW
256°
WSW
231°
SW
230°
SW
235°
SW
240°
WSW
236°
SW
255°
WSW
269°
W
260°
W
259°
W
276°
W
298°
WNW
313°
NW
327°
NNW
346°
NNW
356°
N
10°
N
22°
NNE
50°
NE
84°
E
107°
ESE
146°
SE
139°
SE
197°
SSW
127°
SE
252°
WSW
217°
SW
229°
SW
249°
WSW
267°
W
202°
SSW

Daily Forecast

Date High Low Precip. Humidity
Today
Apr 17

Rain
75 °F
60 °F
100%
60%
Thursday
Apr 18

Clouds
78 °F
55 °F
0%
57%
Friday
Apr 19

Rain
73 °F
59 °F
100%
77%
Saturday
Apr 20

Rain
65 °F
52 °F
47%
88%
Sunday
Apr 21

Rain
56 °F
45 °F
100%
78%
Monday
Apr 22

Rain
57 °F
42 °F
93%
61%
Tuesday
Apr 23

Clouds
67 °F
40 °F
0%
44%
Wednesday
Apr 24

Clouds
71 °F
55 °F
0%
59%
Thursday
Apr 25

Rain
75 °F
52 °F
100%
56%
Friday
Apr 26

Rain
67 °F
51 °F
100%
80%
Saturday
Apr 27

Rain
66 °F
48 °F
100%
57%
Sunday
Apr 28

Clear
74 °F
45 °F
0%
49%
Monday
Apr 29

Clear
78 °F
53 °F
0%
54%
Tuesday
Apr 30

Clouds
79 °F
57 °F
0%
53%
Wednesday
May 1

Rain
80 °F
63 °F
35%
53%
Thursday
May 2

Rain
81 °F
60 °F
100%
49%

Temperature 8-14 Day Outlook



Precipitation 8-14 Day Outlook




Quick Links
Douglas Lake News
Douglas Lake Photos
Douglas Lake Videos




About Us
Contact Us
Site Map
Search Site
Advertise With Us
   
www.DouglasLake.info
THE DOUGLAS LAKE WEBSITE

Copyright 2024, Lakes Online
Privacy    |    Legal